Time,TemperatureF,DewpointF,PressureIn,WindDirection,WindDirectionDegrees,WindSpeedMPH,WindSpeedGustMPH,Humidity,HourlyPrecipIn,Conditions,Clouds,dailyrainin,SoftwareType,DateUTC
2013-03-09 00:00:00,27.5,15.4,30.35,NNE,22,0.0,0.0,60,0.00,,SKC,0.00,VWS V14.01,2013-03-09 05:00:00,
2013-03-09 00:05:00,27.5,15.4,30.35,NNE,22,0.0,0.0,60,0.00,,SKC,0.00,VWS V14.01,2013-03-09 05:05:00,
2013-03-09 00:10:00,27.5,15.8,30.34,NNE,22,0.0,0.0,61,0.00,,SKC,0.00,VWS V14.01,2013-03-09 05:10:00,
2013-03-09 00:15:00,27.3,15.6,30.34,NNE,22,0.0,0.0,61,0.00,,SKC,0.00,VWS V14.01,2013-03-09 05:15:00,
2013-03-09 00:20:00,27.3,15.6,30.34,NNE,22,0.0,0.0,61,0.00,,SKC,0.00,VWS V14.01,2013-03-09 05:20:00,
2013-03-09 00:25:00,27.5,15.8,30.34,NNE,22,0.0,0.0,61,0.00,,SKC,0.00,VWS V14.01,2013-03-09 05:25:00,
2013-03-09 00:30:00,27.5,15.8,30.33,NNE,22,0.0,0.0,61,0.00,,SKC,0.00,VWS V14.01,2013-03-09 05:30:00,
2013-03-09 00:35:00,27.6,15.9,30.34,NNE,22,0.0,0.0,61,0.00,,SKC,0.00,VWS V14.01,2013-03-09 05:35:00,
2013-03-09 00:40:00,27.8,16.1,30.33,NNE,22,0.0,0.0,61,0.00,,SKC,0.00,VWS V14.01,2013-03-09 05:40:00,
2013-03-09 00:45:00,27.8,16.1,30.33,NNE,22,0.0,0.0,61,0.00,,SKC,0.00,VWS V14.01,2013-03-09 05:45:00,
2013-03-09 00:50:00,27.8,16.1,30.33,NNE,22,0.0,0.0,61,0.00,,SKC,0.00,VWS V14.01,2013-03-09 05:50:00,
2013-03-09 00:55:00,27.8,16.1,30.33,NNE,22,0.0,0.0,61,0.00,,SKC,0.00,VWS V14.01,2013-03-09 05:55:00,
2013-03-09 01:00:00,27.8,16.1,30.33,NNE,22,0.0,0.0,61,0.00,,SKC,0.00,VWS V14.01,2013-03-09 06:00:00,
2013-03-09 01:05:00,28.0,16.3,30.33,NNE,22,0.0,0.0,61,0.00,,SKC,0.00,VWS V14.01,2013-03-09 06:05:00,
2013-03-09 01:10:00,27.8,16.1,30.33,NNE,22,0.0,0.0,61,0.00,,SKC,0.00,VWS V14.01,2013-03-09 06:10:00,
2013-03-09 01:15:00,27.8,16.1,30.33,NNE,22,0.0,0.0,61,0.00,,SKC,0.00,VWS V14.01,2013-03-09 06:15:00,
2013-03-09 01:20:00,27.8,16.1,30.33,NNE,22,0.0,0.0,61,0.00,,SKC,0.00,VWS V14.01,2013-03-09 06:20:00,
2013-03-09 01:25:00,27.8,16.1,30.33,NNE,22,0.0,0.0,61,0.00,,SKC,0.00,VWS V14.01,2013-03-09 06:25:00,
2013-03-09 01:30:00,27.6,16.3,30.33,NNE,22,0.0,0.0,62,0.00,,SKC,0.00,VWS V14.01,2013-03-09 06:30:00,
2013-03-09 01:35:00,27.6,16.3,30.33,NNE,22,0.0,0.0,62,0.00,,SKC,0.00,VWS V14.01,2013-03-09 06:35:00,
2013-03-09 01:41:00,27.6,16.3,30.33,NNE,22,0.0,0.0,62,0.00,,SKC,0.00,VWS V14.01,2013-03-09 06:41:00,
2013-03-09 01:46:00,27.5,16.2,30.33,NNE,22,0.0,0.0,62,0.00,,SKC,0.00,VWS V14.01,2013-03-09 06:46:00,
2013-03-09 01:51:00,27.6,16.3,30.33,NNE,22,0.0,0.0,62,0.00,,SKC,0.00,VWS V14.01,2013-03-09 06:51:00,
2013-03-09 01:56:00,27.6,16.3,30.33,NNE,22,0.0,0.0,62,0.00,,SKC,0.00,VWS V14.01,2013-03-09 06:56:00,
2013-03-09 02:01:00,27.6,16.3,30.33,NNE,22,0.0,0.0,62,0.00,,SKC,0.00,VWS V14.01,2013-03-09 07:01:00,
2013-03-09 02:06:00,27.5,16.2,30.33,NNE,22,0.0,0.0,62,0.00,,SKC,0.00,VWS V14.01,2013-03-09 07:06:00,
2013-03-09 02:11:00,27.5,16.2,30.33,NNE,22,0.0,0.0,62,0.00,,SKC,0.00,VWS V14.01,2013-03-09 07:11:00,
2013-03-09 02:16:00,27.5,16.2,30.33,NNE,22,0.0,0.0,62,0.00,,SKC,0.00,VWS V14.01,2013-03-09 07:16:00,
2013-03-09 02:21:00,27.5,16.2,30.33,NNE,22,0.0,0.0,62,0.00,,SKC,0.00,VWS V14.01,2013-03-09 07:21:00,
2013-03-09 02:26:00,27.3,16.0,30.32,NNE,22,0.0,0.0,62,0.00,,SKC,0.00,VWS V14.01,2013-03-09 07:26:00,
2013-03-09 02:31:00,27.5,16.2,30.32,NNE,22,0.0,0.0,62,0.00,,SKC,0.00,VWS V14.01,2013-03-09 07:31:00,
2013-03-09 02:36:00,27.5,16.2,30.32,NNE,22,0.0,0.0,62,0.00,,SKC,0.00,VWS V14.01,2013-03-09 07:36:00,
2013-03-09 02:41:00,27.5,16.2,30.32,NNE,22,0.0,0.0,62,0.00,,SKC,0.00,VWS V14.01,2013-03-09 07:41:00,
2013-03-09 02:46:00,27.5,16.6,30.32,NNE,22,0.0,0.0,63,0.00,,SKC,0.00,VWS V14.01,2013-03-09 07:46:00,
2013-03-09 02:51:00,27.5,16.6,30.32,NNE,22,0.0,0.0,63,0.00,,SKC,0.00,VWS V14.01,2013-03-09 07:51:00,
2013-03-09 02:56:00,27.3,16.4,30.31,NNE,22,0.0,0.0,63,0.00,,SKC,0.00,VWS V14.01,2013-03-09 07:56:00,
2013-03-09 03:01:00,27.3,16.4,30.31,NNE,22,0.0,0.0,63,0.00,,SKC,0.00,VWS V14.01,2013-03-09 08:01:00,
2013-03-09 03:06:00,27.1,16.2,30.31,NNE,22,0.0,0.0,63,0.00,,SKC,0.00,VWS V14.01,2013-03-09 08:06:00,
2013-03-09 03:11:00,26.9,16.0,30.31,NNE,22,0.0,0.0,63,0.00,,SKC,0.00,VWS V14.01,2013-03-09 08:11:00,
2013-03-09 03:16:00,26.9,16.0,30.31,NNE,22,0.0,0.0,63,0.00,,SKC,0.00,VWS V14.01,2013-03-09 08:16:00,
2013-03-09 03:21:00,26.7,15.8,30.30,NNE,22,0.0,0.0,63,0.00,,SKC,0.00,VWS V14.01,2013-03-09 08:21:00,
2013-03-09 03:26:00,26.4,15.5,30.30,NNE,22,0.0,0.0,63,0.00,,SKC,0.00,VWS V14.01,2013-03-09 08:26:00,
2013-03-09 03:31:00,26.2,15.3,30.30,NNE,22,0.0,0.0,63,0.00,,SKC,0.00,VWS V14.01,2013-03-09 08:31:00,
2013-03-09 03:36:00,26.2,15.3,30.30,NNE,22,0.0,0.0,63,0.00,,SKC,0.00,VWS V14.01,2013-03-09 08:36:00,
2013-03-09 03:41:00,26.0,15.5,30.29,NNE,22,0.0,0.0,64,0.00,,SKC,0.00,VWS V14.01,2013-03-09 08:41:00,
2013-03-09 03:47:00,26.0,15.5,30.29,NNE,22,0.0,0.0,64,0.00,,SKC,0.00,VWS V14.01,2013-03-09 08:47:00,
2013-03-09 03:52:00,26.0,15.5,30.29,NNE,22,0.0,0.0,64,0.00,,SKC,0.00,VWS V14.01,2013-03-09 08:52:00,
2013-03-09 03:57:00,25.8,15.3,30.29,NNE,22,0.0,0.0,64,0.00,,SKC,0.00,VWS V14.01,2013-03-09 08:57:00,
2013-03-09 04:02:00,25.8,15.3,30.29,NNE,22,0.0,0.0,64,0.00,,SKC,0.00,VWS V14.01,2013-03-09 09:02:00,
2013-03-09 04:07:00,25.7,15.6,30.29,NNE,22,0.0,0.0,65,0.00,,SKC,0.00,VWS V14.01,2013-03-09 09:07:00,
2013-03-09 04:12:00,25.7,15.6,30.29,NNE,22,0.0,0.0,65,0.00,,SKC,0.00,VWS V14.01,2013-03-09 09:12:00,
2013-03-09 04:17:00,25.7,15.6,30.29,NNE,22,0.0,0.0,65,0.00,,SKC,0.00,VWS V14.01,2013-03-09 09:17:00,
2013-03-09 04:22:00,25.7,15.6,30.28,NNE,22,0.0,0.0,65,0.00,,SKC,0.00,VWS V14.01,2013-03-09 09:22:00,
2013-03-09 04:27:00,25.7,15.6,30.29,NNE,22,0.0,0.0,65,0.00,,SKC,0.00,VWS V14.01,2013-03-09 09:27:00,
2013-03-09 04:32:00,25.5,15.4,30.29,NNE,22,0.0,0.0,65,0.00,,SKC,0.00,VWS V14.01,2013-03-09 09:32:00,
2013-03-09 04:37:00,25.5,15.4,30.29,NNE,22,0.0,0.0,65,0.00,,SKC,0.00,VWS V14.01,2013-03-09 09:37:00,
2013-03-09 04:42:00,25.5,15.4,30.29,NNE,22,0.0,0.0,65,0.00,,SKC,0.00,VWS V14.01,2013-03-09 09:42:00,
2013-03-09 04:47:00,25.5,15.7,30.29,NNE,22,0.0,0.0,66,0.00,,SKC,0.00,VWS V14.01,2013-03-09 09:47:00,
2013-03-09 04:52:00,25.7,15.9,30.29,NNE,22,0.0,0.0,66,0.00,,SKC,0.00,VWS V14.01,2013-03-09 09:52:00,
2013-03-09 04:57:00,25.7,15.9,30.29,NNE,22,0.0,0.0,66,0.00,,SKC,0.00,VWS V14.01,2013-03-09 09:57:00,
2013-03-09 05:02:00,25.7,15.9,30.30,NNE,22,0.0,0.0,66,0.00,,SKC,0.00,VWS V14.01,2013-03-09 10:02:00,
2013-03-09 05:07:00,25.7,15.9,30.29,NNE,22,0.0,0.0,66,0.00,,SKC,0.00,VWS V14.01,2013-03-09 10:07:00,
2013-03-09 05:12:00,25.7,15.9,30.29,NNE,22,0.0,0.0,66,0.00,,SKC,0.00,VWS V14.01,2013-03-09 10:12:00,
2013-03-09 05:17:00,25.5,15.7,30.29,NNE,22,0.0,0.0,66,0.00,,SKC,0.00,VWS V14.01,2013-03-09 10:17:00,
2013-03-09 05:22:00,25.5,15.7,30.29,NNE,22,0.0,0.0,66,0.00,,SKC,0.00,VWS V14.01,2013-03-09 10:22:00,
2013-03-09 05:27:00,25.5,15.7,30.29,NNE,22,0.0,0.0,66,0.00,,SKC,0.00,VWS V14.01,2013-03-09 10:27:00,
2013-03-09 05:32:00,25.5,15.7,30.30,NNE,22,0.0,0.0,66,0.00,,SKC,0.00,VWS V14.01,2013-03-09 10:32:00,
2013-03-09 05:37:00,25.5,15.7,30.29,NNE,22,0.0,0.0,66,0.00,,SKC,0.00,VWS V14.01,2013-03-09 10:37:00,
2013-03-09 05:42:00,25.5,15.7,30.29,NNE,22,0.0,0.0,66,0.00,,SKC,0.00,VWS V14.01,2013-03-09 10:42:00,
2013-03-09 05:47:00,25.3,15.6,30.29,NNE,22,0.0,0.0,66,0.00,,SKC,0.00,VWS V14.01,2013-03-09 10:47:00,
2013-03-09 05:52:00,25.3,15.6,30.29,NNE,22,0.0,0.0,66,0.00,,SKC,0.00,VWS V14.01,2013-03-09 10:52:00,
2013-03-09 05:57:00,25.3,15.6,30.29,NNE,22,0.0,0.0,66,0.00,,SKC,0.00,VWS V14.01,2013-03-09 10:57:00,
2013-03-09 06:02:00,25.1,15.4,30.29,NNE,22,0.0,0.0,66,0.00,,SKC,0.00,VWS V14.01,2013-03-09 11:02:00,
2013-03-09 06:07:00,24.9,15.2,30.29,NNE,22,0.0,0.0,66,0.00,,SKC,0.00,VWS V14.01,2013-03-09 11:07:00,
2013-03-09 06:12:00,24.8,15.1,30.30,NNE,22,0.0,0.0,66,0.00,,SKC,0.00,VWS V14.01,2013-03-09 11:12:00,
2013-03-09 06:17:00,24.9,15.2,30.30,NNE,22,0.0,0.0,66,0.00,,SKC,0.00,VWS V14.01,2013-03-09 11:17:00,
2013-03-09 06:24:00,24.9,15.2,30.31,NNE,22,0.0,0.0,66,0.00,,SKC,0.00,VWS V14.01,2013-03-09 11:24:00,
2013-03-09 06:29:00,24.9,15.2,30.30,NNE,22,0.0,0.0,66,0.00,,SKC,0.00,VWS V14.01,2013-03-09 11:29:00,
2013-03-09 06:34:00,24.9,15.2,30.30,NNE,22,0.0,0.0,66,0.00,,SKC,0.00,VWS V14.01,2013-03-09 11:34:00,
2013-03-09 06:39:00,24.8,15.1,30.30,NNE,22,0.0,0.0,66,0.00,,SKC,0.00,VWS V14.01,2013-03-09 11:39:00,
2013-03-09 06:44:00,24.4,14.7,30.30,NNE,22,0.0,0.0,66,0.00,,SKC,0.00,VWS V14.01,2013-03-09 11:44:00,
2013-03-09 06:49:00,24.2,14.5,30.30,NNE,22,0.0,0.0,66,0.00,,SKC,0.00,VWS V14.01,2013-03-09 11:49:00,
2013-03-09 06:54:00,24.4,14.7,30.30,NNE,22,0.0,0.0,66,0.00,,SKC,0.00,VWS V14.01,2013-03-09 11:54:00,
2013-03-09 06:59:00,24.2,14.5,30.30,NNE,22,0.0,0.0,66,0.00,,SKC,0.00,VWS V14.01,2013-03-09 11:59:00,
2013-03-09 07:05:00,24.0,14.3,30.30,NNE,22,0.0,0.0,66,0.00,,SKC,0.00,VWS V14.01,2013-03-09 12:05:00,
2013-03-09 07:10:00,24.4,14.7,30.29,NNE,22,0.0,0.0,66,0.00,,SKC,0.00,VWS V14.01,2013-03-09 12:10:00,
2013-03-09 07:15:00,24.4,15.0,30.29,NNE,22,0.0,0.0,67,0.00,,SKC,0.00,VWS V14.01,2013-03-09 12:15:00,
2013-03-09 07:20:00,24.6,15.2,30.29,NNE,22,0.0,0.0,67,0.00,,SKC,0.00,VWS V14.01,2013-03-09 12:20:00,
2013-03-09 08:15:00,30.2,22.3,30.29,South,180,0.8,3.5,72,0.00,,SKC,0.00,VWS V14.01,2013-03-09 13:15:00,
2013-03-09 08:30:00,31.4,23.1,30.28,SSW,202,1.7,2.4,71,0.00,,SKC,0.00,VWS V14.01,2013-03-09 13:30:00,
2013-03-09 08:45:00,32.5,23.8,30.29,South,180,1.5,1.7,70,0.00,,SKC,0.00,VWS V14.01,2013-03-09 13:45:00,
2013-03-09 09:00:00,33.4,24.3,30.29,SSW,202,0.6,2.0,69,0.00,,SKC,0.00,VWS V14.01,2013-03-09 14:00:00,
2013-03-09 09:15:00,35.0,25.2,30.29,SSE,158,2.9,5.3,67,0.00,,SKC,0.00,VWS V14.01,2013-03-09 14:15:00,
2013-03-09 09:30:00,37.2,26.2,30.29,SSW,202,2.4,5.8,64,0.00,,SKC,0.00,VWS V14.01,2013-03-09 14:30:00,
2013-03-09 09:45:00,38.4,25.3,30.28,WSW,248,0.0,10.7,59,0.00,,SKC,0.00,VWS V14.01,2013-03-09 14:45:00,
2013-03-09 10:00:00,39.3,24.9,30.28,SSW,202,1.3,4.4,56,0.00,,SKC,0.00,VWS V14.01,2013-03-09 15:00:00,
2013-03-09 10:15:00,39.3,24.1,30.27,SSW,202,2.9,4.4,54,0.00,,SKC,0.00,VWS V14.01,2013-03-09 15:15:00,
2013-03-09 10:30:00,38.8,23.6,30.26,SSW,202,2.0,6.7,54,0.00,,SKC,0.00,VWS V14.01,2013-03-09 15:30:00,
2013-03-09 10:45:00,39.0,23.8,30.26,South,180,0.0,5.3,54,0.00,,SKC,0.00,VWS V14.01,2013-03-09 15:45:00,
2013-03-09 11:00:00,39.5,24.2,30.26,SSW,202,6.0,6.0,54,0.00,,SKC,0.00,VWS V14.01,2013-03-09 16:00:00,
2013-03-09 11:15:00,39.5,23.8,30.26,SSW,202,4.2,6.9,53,0.00,,SKC,0.00,VWS V14.01,2013-03-09 16:15:00,
2013-03-09 11:30:00,40.4,24.6,30.25,SSW,202,2.2,4.2,53,0.00,,SKC,0.00,VWS V14.01,2013-03-09 16:30:00,
2013-03-09 11:45:00,41.3,24.5,30.25,SSE,158,3.1,4.4,51,0.00,,SKC,0.00,VWS V14.01,2013-03-09 16:45:00,
2013-03-09 12:00:00,42.2,24.4,30.23,SSW,202,0.0,6.7,49,0.00,,SKC,0.00,VWS V14.01,2013-03-09 17:00:00,
2013-03-09 12:15:00,44.0,25.6,30.24,South,180,4.9,5.3,48,0.00,,SKC,0.00,VWS V14.01,2013-03-09 17:15:00,
2013-03-09 12:30:00,45.5,25.9,30.24,SSE,158,2.6,6.9,46,0.00,,SKC,0.00,VWS V14.01,2013-03-09 17:30:00,
2013-03-09 12:45:00,46.0,24.8,30.23,SSW,202,7.6,7.8,43,0.00,,SKC,0.00,VWS V14.01,2013-03-09 17:45:00,
2013-03-09 13:00:00,45.5,24.3,30.22,SW,225,0.8,7.6,43,0.00,,SKC,0.00,VWS V14.01,2013-03-09 18:00:00,
2013-03-09 13:15:00,46.5,25.2,30.21,SSW,202,6.4,8.0,43,0.00,,SKC,0.00,VWS V14.01,2013-03-09 18:15:00,
2013-03-09 13:30:00,47.3,24.8,30.20,South,180,5.8,7.8,41,0.00,,SKC,0.00,VWS V14.01,2013-03-09 18:30:00,
2013-03-09 13:45:00,47.3,23.6,30.18,SSW,202,3.8,6.4,39,0.00,,SKC,0.00,VWS V14.01,2013-03-09 18:45:00,
2013-03-09 14:00:00,46.7,22.5,30.17,SSW,202,0.0,6.4,38,0.00,,SKC,0.00,VWS V14.01,2013-03-09 19:00:00,
2013-03-09 14:15:00,45.3,21.8,30.16,SW,225,3.3,3.3,39,0.00,,SKC,0.00,VWS V14.01,2013-03-09 19:15:00,
2013-03-09 14:30:00,44.0,21.2,30.16,South,180,5.5,5.5,40,0.00,,SKC,0.00,VWS V14.01,2013-03-09 19:30:00,
2013-03-09 14:45:00,45.5,22.6,30.15,SW,225,6.9,6.9,40,0.00,,SKC,0.00,VWS V14.01,2013-03-09 19:45:00,
2013-03-09 15:00:00,44.7,21.9,30.14,SW,225,4.6,7.8,40,0.00,,SKC,0.00,VWS V14.01,2013-03-09 20:00:00,
2013-03-09 15:15:00,44.0,21.8,30.13,SSE,158,2.4,6.2,41,0.00,,SKC,0.00,VWS V14.01,2013-03-09 20:15:00,
2013-03-09 15:30:00,43.1,21.6,30.12,SSE,158,2.9,5.5,42,0.00,,SKC,0.00,VWS V14.01,2013-03-09 20:30:00,
2013-03-09 15:45:00,42.4,21.5,30.12,South,180,2.9,2.9,43,0.00,,SKC,0.00,VWS V14.01,2013-03-09 20:45:00,
2013-03-09 16:00:00,42.4,22.0,30.12,SE,135,0.0,3.8,44,0.00,,SKC,0.00,VWS V14.01,2013-03-09 21:00:00,
2013-03-09 16:15:00,42.8,23.0,30.11,SSE,158,3.3,5.1,45,0.00,,SKC,0.00,VWS V14.01,2013-03-09 21:15:00,
2013-03-09 16:30:00,42.4,22.6,30.10,SSW,202,3.8,3.8,45,0.00,,SKC,0.00,VWS V14.01,2013-03-09 21:30:00,
2013-03-09 16:45:00,42.2,22.4,30.10,SE,135,6.4,6.4,45,0.00,,SKC,0.00,VWS V14.01,2013-03-09 21:45:00,
2013-03-09 17:00:00,41.9,22.6,30.10,SSW,202,2.0,7.6,46,0.00,,SKC,0.00,VWS V14.01,2013-03-09 22:00:00,
2013-03-09 17:15:00,41.7,23.0,30.09,SSW,202,1.1,5.3,47,0.00,,SKC,0.00,VWS V14.01,2013-03-09 22:15:00,
2013-03-09 17:30:00,41.5,23.3,30.09,SSW,202,0.0,5.5,48,0.00,,SKC,0.00,VWS V14.01,2013-03-09 22:30:00,
2013-03-09 17:45:00,41.0,22.8,30.09,South,180,5.1,6.2,48,0.00,,SKC,0.00,VWS V14.01,2013-03-09 22:45:00,
2013-03-09 18:00:00,40.4,22.8,30.08,South,180,0.0,5.1,49,0.00,,SKC,0.00,VWS V14.01,2013-03-09 23:00:00,
2013-03-09 18:15:00,39.9,22.8,30.08,South,180,0.0,4.6,50,0.00,,SKC,0.00,VWS V14.01,2013-03-09 23:15:00,
2013-03-09 18:30:00,39.3,22.7,30.08,SSE,158,2.2,2.2,51,0.00,,SKC,0.00,VWS V14.01,2013-03-09 23:30:00,
2013-03-09 18:45:00,39.0,22.9,30.07,South,180,0.0,4.6,52,0.00,,SKC,0.00,VWS V14.01,2013-03-09 23:45:00,
2013-03-09 19:00:00,38.8,23.1,30.06,SSE,158,0.0,0.0,53,0.00,,SKC,0.00,VWS V14.01,2013-03-10 00:00:00,
2013-03-09 19:15:00,38.6,23.4,30.05,SE,135,0.8,2.6,54,0.00,,SKC,0.00,VWS V14.01,2013-03-10 00:15:00,
2013-03-09 19:30:00,38.4,23.7,30.04,SSW,202,1.7,1.7,55,0.00,,SKC,0.00,VWS V14.01,2013-03-10 00:30:00,
2013-03-09 19:45:00,38.4,23.7,30.04,South,180,1.7,10.2,55,0.00,,SKC,0.00,VWS V14.01,2013-03-10 00:45:00,
2013-03-09 20:00:00,38.3,24.0,30.04,SSW,202,3.5,6.0,56,0.00,,SKC,0.00,VWS V14.01,2013-03-10 01:00:00,
2013-03-09 20:15:00,38.1,23.8,30.04,SE,135,0.0,6.9,56,0.00,,SKC,0.00,VWS V14.01,2013-03-10 01:15:00,
2013-03-09 20:30:00,37.5,23.2,30.04,South,180,0.0,21.9,56,0.00,,SKC,0.00,VWS V14.01,2013-03-10 01:30:00,
2013-03-09 20:45:00,37.0,22.8,30.04,SSW,202,1.5,6.0,56,0.00,,SKC,0.00,VWS V14.01,2013-03-10 01:45:00,
2013-03-09 21:00:00,36.8,23.0,30.05,South,180,1.7,2.6,57,0.00,,SKC,0.00,VWS V14.01,2013-03-10 02:00:00,
2013-03-09 21:15:00,36.8,23.0,30.05,SSW,202,4.2,4.4,57,0.00,,SKC,0.00,VWS V14.01,2013-03-10 02:15:00,
2013-03-09 21:30:00,36.5,23.1,30.05,SW,225,2.0,4.9,58,0.00,,SKC,0.00,VWS V14.01,2013-03-10 02:30:00,
2013-03-09 21:45:00,36.5,23.5,30.03,South,180,3.5,3.8,59,0.00,,SKC,0.00,VWS V14.01,2013-03-10 02:45:00,
2013-03-09 22:00:00,36.5,23.5,30.03,SW,225,2.9,5.5,59,0.00,,SKC,0.00,VWS V14.01,2013-03-10 03:00:00,
2013-03-09 22:15:00,36.5,24.0,30.02,South,180,1.5,2.9,60,0.00,,SKC,0.00,VWS V14.01,2013-03-10 03:15:00,
2013-03-09 22:30:00,36.5,24.0,30.02,South,180,0.0,5.1,60,0.00,,SKC,0.00,VWS V14.01,2013-03-10 03:30:00,
2013-03-09 22:45:00,36.5,24.3,30.01,SSW,202,2.2,2.4,61,0.00,,SKC,0.00,VWS V14.01,2013-03-10 03:45:00,
2013-03-09 23:00:00,36.5,24.3,30.01,South,180,0.0,2.2,61,0.00,,SKC,0.00,VWS V14.01,2013-03-10 04:00:00,
2013-03-09 23:15:00,36.6,24.4,29.99,South,180,1.1,5.1,61,0.00,,SKC,0.00,VWS V14.01,2013-03-10 04:15:00,
2013-03-09 23:30:00,36.5,24.7,29.99,SSE,158,0.0,2.9,62,0.00,,SKC,0.00,VWS V14.01,2013-03-10 04:30:00,
2013-03-09 23:45:00,36.6,24.8,29.99,South,180,0.0,4.0,62,0.00,,SKC,0.00,VWS V14.01,2013-03-10 04:45:00,